Regional Weather Roundup
Issued by NWS

Home | Current Version | Previous Version | Graphics & Text | Print | Product List | Glossary On
Versions: 1 2 3 4 5 6 7 8 9 10 11 12 13 14 15 16 17 18 19 20 21 22 23 24 25 26 27 28 29 30 31 32 33 34 35 36 37 38 39 40 41 42 43 44 45 46 47 48 49 50
000
ASUS43 KIND 181609
RWRIN

WEATHER ROUNDUP FOR INDIANA
NATIONAL WEATHER SERVICE INDIANAPOLIS IN
1100 AM EST THU DEC 18 2014

NOTE: "FAIR" INDICATES FEW OR NO CLOUDS BELOW 12,000 FEET WITH NO
SIGNIFICANT WEATHER AND/OR OBSTRUCTIONS TO VISIBILITY.

* - STATION DOES NOT REPORT WEATHER SUCH AS PRECIPITATION OR FOG.

+ - STATION NOT QUALITY CONTROLLED BY THE NATIONAL WEATHER SERVICE.
    USE DATA WITH CAUTION...ESPECIALLY DEWPOINT AND RELATIVE
    HUMIDITY OBSERVATIONS.

INZ001>003-010>013-019-020-181700-
NORTHWEST INDIANA

CITY           SKY/WX    TMP DP  RH WIND       PRES   REMARKS
GARY /AIRPORT/ CLOUDY   N/A N/A N/A VRB7      30.32R
KNOX *+        CLOUDY    26  17  68 W8        30.30R WCI  17
LA PORTE +     CLOUDY    28  22  80 W5        30.30S HAZE    WCI  22
MICHIGAN CITY+ CLOUDY    27  19  74 SW7       30.31R WCI  19
MONTICELLO +   CLOUDY    25  19  76 SW3       30.30F
RENSSELAER +   CLOUDY    27  23  86 SW3       30.32S
VALPARAISO     CLOUDY    25  17  72 SW10      30.31R WCI  15

$$

LMZ046-743>745-181700-
SOUTHERN LAKE MICHIGAN

STATION/POSITION TIME  TEMP WIND        PRES
                       AIR  DIR/SP/G
                 (UTC) (F)  (DEG/KT/KT) (MB)

$$

INZ004-005-014>016-021>024-181700-
NORTH CENTRAL INDIANA

CITY           SKY/WX    TMP DP  RH WIND       PRES   REMARKS
ELKHART        CLOUDY    28  21  74 SW8       30.28R WCI  20
GOSHEN         CLOUDY    27  22  81 SW10      30.27R WCI  17
LOGANSPORT +   CLOUDY    27  19  74 SW5       30.31S WCI  21
PERU/GRISSOM   MIX PCPN  26  22  86 SW5       30.29S WCI  20
ROCHESTER +    PTSUNNY   30  23  74 W8        30.30S WCI  23
SOUTH BEND     CLOUDY    27  21  78 SW8       30.29R WCI  19
WARSAW +       CLOUDY    27  23  86 W6        30.28S FOG     WCI  20

$$

INZ006>009-017-018-025>027-181700-
NORTHEAST INDIANA

CITY           SKY/WX    TMP DP  RH WIND       PRES   REMARKS
ANGOLA *+      CLOUDY    28  25  86 W6        30.23S WCI  22
AUBURN +       CLOUDY    30  23  74 W6        30.27S WCI  24
FORT WAYNE     FLURRIES  27  22  81 SW9       30.28R WCI  18
HUNTINGTON +   CLOUDY    27  22  83 W7        30.29R WCI  19

$$

INZ028-029-035-036-043>045-051>053-181700-
WEST CENTRAL INDIANA

CITY           SKY/WX    TMP DP  RH WIND       PRES   REMARKS
GREENCASTLE +  CLOUDY    27  19  74 CALM      30.31R
LAFAYETTE      CLOUDY    25  19  78 W5        30.31F WCI  19
TERRE HAUTE    CLOUDY    27  19  72 CALM      30.32S

$$

INZ030>032-037>040-046>048-054>057-064-065-181700-
CENTRAL INDIANA

CITY           SKY/WX    TMP DP  RH WIND       PRES   REMARKS
CP ATTERBURY + CLOUDY    28  21  74 MISG      30.31R
FRANKFORT +    CLOUDY    26  20  79 CALM      30.31F
INDIANAPOLIS   CLOUDY    25  19  78 CALM      30.28F
-EAGLE CREEK   CLOUDY    26  19  74 CALM      30.29F
KOKOMO *+      CLOUDY    27  18  69 W6        30.29F WCI  20
MARION +       CLOUDY    26  22  84 W3        30.29F
MT COMFORT *+  CLOUDY    27  16  63 CALM      30.29F
SHELBYVILLE    CLOUDY    28  19  69 CALM      30.28F
ZIONSVILLE +   CLOUDY    26  19  75 W5        30.30S WCI  20

$$

INZ033-034-041-042-049-050-058-059-181700-
EAST CENTRAL INDIANA

CITY           SKY/WX    TMP DP  RH WIND       PRES   REMARKS
MUNCIE         CLOUDY    26  19  74 W3        30.28S

$$

INZ060-061-067>069-081>083-085>088-181700-
SOUTHWEST INDIANA

CITY           SKY/WX    TMP DP  RH WIND       PRES   REMARKS
EVANSVILLE     CLOUDY    31  25  78 N3        30.34R
HUNTINGBURG *+ CLOUDY    28  21  74 NE3       30.32R
WASHINGTON +   CLOUDY    28  20  72 CALM      30.31F

$$

INZ062-063-066-070>080-084-089>092-181700-
SOUTH CENTRAL AND SOUTHEAST INDIANA

CITY           SKY/WX    TMP DP  RH WIND       PRES   REMARKS
BLOOMINGTON    CLOUDY    26  21  81 CALM      30.30R

$$



USA.gov is the U.S. government's official web portal to all federal, state and local government web resources and services.